{"data":{"norad_id":65743,"epoch":"2026-09-20T09:22:28.100928Z","epoch_age_seconds":118209,"freshness":"FRESH","line1":"1 65743U 25216K   26263.39060302  .00012166  00000+0  37062-3 0  9999","line2":"2 65743  53.1572 146.3670 0001179  93.5017 266.6121 15.34401222 56436","mean_motion":15.34401222,"eccentricity":0.0001179,"inclination_deg":53.1572,"raan_deg":146.367,"arg_perigee_deg":93.5017,"mean_anomaly_deg":266.6121,"bstar":0.00037062,"rev_number":5643,"period_min":93.847683340805,"perigee_km":461.89307353189,"apogee_km":463.50614280409,"semimajor_km":6840.836608168,"source":"CELESTRAK","updated_at":"2026-09-21T09:00:35.708524Z"}}